Starlink 1741

operational
NORAD ID: 46567 Int'l Des: 2020-070 Owner: SPXS Country: US Constellation: starlink
LEOCIRCULAR

Starlink 1741について

説明を読み込み中...

リアルタイム位置

3D地球を読み込み中...

次回通過

高度履歴

Altitude vs Time

uPlot chart will show altitude changes over time

軌道要素

1 46567U 20070AM 26062.16668981 .00197813 00000-0 22371-2 0 9994
2 46567 53.0428 149.6825 0004090 166.0046 341.1855 15.61286953 5865
Epoch: Mar 3, 2026 • Age: 12 hours

現在のステータス

高度 400.8 km
速度 7.67 km/s
衛星直下点 -45.81°S, 111.59°E
打ち上げ日 Oct 6, 2020
運用期間 5.4 years
タイプ internet

技術仕様

分類 Payload
質量 260.00 kg
乾燥質量 248.00 kg
総質量 260.00 kg
長さ 0.20 m
直径 2.80 m
スパン 9.00 m
形状 Box + pan
製造者 SPXS
バスタイプ Starlink
フェーズステータス In Orbit
所有者/国 SPXS/US

大規模コンステレーション

Loading constellations...